Location: Lecco
(45.8566°N, 9.3977°E)
Time: 03:03:17
(UTC+02:00)

SR - All Passes

Search period start: 15 October 2019 00:00
Search period end: 25 October 2019 00:00
Orbit: 575 x 881 km, 66.7° (Epoch: 14 October)

Date Brightness Start Highest point End Pass type
(mag) Time Alt. Az. Time Alt. Az. Time Alt. Az.
15 Oct - 01:12:28 10° SW 01:17:25 73° NW 01:22:53 10° NNE visible
15 Oct - 02:57:00 10° WNW 03:00:34 18° NNW 03:04:20 10° N visible
15 Oct - 06:28:16 10° N 06:30:08 11° NNE 06:32:02 10° NE visible
15 Oct - 08:08:56 10° NNW 08:14:08 32° NE 08:19:24 10° ESE daylight
15 Oct - 09:50:50 10° NW 09:56:38 60° WSW 10:02:25 10° SSE daylight
16 Oct - 00:22:58 10° SSW 00:27:48 61° ESE 00:33:08 10° NE night (unlit)
16 Oct - 02:06:00 10° W 02:10:21 27° NW 02:15:01 10° NNE visible
16 Oct - 03:53:59 10° NNW 03:54:31 10° NNW 03:55:03 10° N visible
16 Oct - 07:19:35 10° NNW 07:23:59 21° NE 07:28:26 10° E daylight
16 Oct - 09:01:05 10° NNW 09:07:00 80° NE 09:12:56 10° SE daylight
16 Oct - 10:44:26 10° WNW 10:48:30 19° WSW 10:52:32 10° SSW daylight
16 Oct - 23:34:06 10° S 23:38:24 31° ESE 23:43:05 10° NE night (unlit)
17 Oct - 01:15:31 10° WSW 01:20:19 43° NW 01:25:35 10° NNE visible
17 Oct - 03:01:24 10° NW 03:03:59 13° NNW 03:06:40 10° N visible
17 Oct - 06:30:22 10° N 06:33:39 15° NNE 06:36:59 10° ENE visible
17 Oct - 08:11:30 10° NNW 08:17:12 48° NE 08:22:56 10° SE daylight
17 Oct - 09:53:55 10° NW 09:59:13 35° WSW 10:04:29 10° S daylight
17 Oct - 22:46:12 10° SE 22:49:12 16° ESE 22:52:22 10° ENE night (unlit)
18 Oct - 00:25:31 10° SW 00:30:30 77° NW 00:36:00 10° NNE night (unlit)
18 Oct - 02:09:55 10° WNW 02:13:36 19° NNW 02:17:30 10° NNE visible
18 Oct - 05:41:25 10° N 05:43:09 11° NNE 05:44:55 10° NE visible
18 Oct - 07:22:04 10° NNW 07:27:13 31° NE 07:32:25 10° ESE daylight
18 Oct - 09:03:55 10° NW 09:09:46 63° WSW 09:15:34 10° SSE daylight
18 Oct - 10:50:10 10° W 10:50:46 10° W 10:51:22 10° WSW daylight
18 Oct - 23:36:04 10° SSW 23:40:54 58° ESE 23:46:14 10° NE night (unlit)
19 Oct - 01:18:58 10° W 01:23:24 28° NW 01:28:11 10° NNE visible
19 Oct - 03:06:31 10° NNW 03:07:31 10° NNW 03:08:33 10° N visible
19 Oct - 06:32:42 10° NNW 06:37:02 21° NE 06:41:25 10° E visible
19 Oct - 08:14:11 10° NNW 08:20:07 77° NE 08:26:02 10° SE daylight
19 Oct - 09:57:25 10° WNW 10:01:38 20° WSW 10:05:50 10° SSW daylight
19 Oct - 22:47:15 10° S 22:51:31 30° ESE 22:56:08 10° NE night (unlit)
20 Oct - 00:28:31 10° WSW 00:33:23 46° NW 00:38:43 10° NNE night (unlit)
20 Oct - 02:14:15 10° NW 02:17:00 14° NNW 02:19:51 10° N visible
20 Oct - 05:43:29 10° N 05:46:41 15° NNE 05:49:55 10° ENE visible
20 Oct - 07:24:37 10° NNW 07:30:17 46° NE 07:35:58 10° ESE daylight
20 Oct - 09:06:58 10° NW 09:12:21 37° WSW 09:17:41 10° S daylight
20 Oct - 21:59:29 10° SE 22:02:20 15° ESE 22:05:19 10° ENE night (unlit)
20 Oct - 23:38:34 10° SW 23:43:34 81° WNW 23:49:07 10° NNE night (unlit)
21 Oct - 01:22:50 10° W 01:26:38 20° NNW 01:30:40 10° NNE visible
21 Oct - 04:54:34 10° N 04:56:10 11° NNE 04:57:49 10° NE visible
21 Oct - 06:35:11 10° NNW 06:40:17 30° NE 06:45:25 10° ESE visible
21 Oct - 08:17:00 10° NW 08:22:52 66° WSW 08:28:42 10° SSE daylight
21 Oct - 10:02:28 10° W 10:03:55 11° W 10:05:23 10° WSW daylight
21 Oct - 22:49:09 10° SSW 22:54:00 54° ESE 22:59:20 10° NE night (unlit)
22 Oct - 00:31:56 10° WSW 00:36:27 29° NW 00:41:19 10° NNE night (unlit)
22 Oct - 02:19:12 10° NNW 02:20:32 11° NNW 02:21:54 10° N visible
22 Oct - 05:45:50 10° NNW 05:50:05 20° NE 05:54:23 10° E visible
22 Oct - 07:27:17 10° NNW 07:33:13 74° NE 07:39:07 10° SE daylight
22 Oct - 09:10:26 10° WNW 09:14:47 22° WSW 09:19:06 10° SSW daylight
22 Oct - 22:00:25 10° SSE 22:04:38 28° ESE 22:09:12 10° NE night (unlit)
22 Oct - 23:41:31 10° SW 23:46:27 48° NW 23:51:51 10° NNE night (unlit)
23 Oct - 01:27:07 10° WNW 01:30:02 14° NNW 01:33:02 10° N visible
23 Oct - 04:56:37 10° N 04:59:43 14° NNE 05:02:50 10° ENE visible
23 Oct - 06:37:43 10° NNW 06:43:22 44° NE 06:49:00 10° ESE visible
23 Oct - 08:20:01 10° NW 08:25:29 39° WSW 08:30:51 10° S daylight
23 Oct - 21:12:47 10° SE 21:15:28 15° ESE 21:18:16 10° ENE night (unlit)
23 Oct - 22:51:37 10° SSW 22:56:40 85° WNW 23:02:14 10° NNE night (unlit)
24 Oct - 00:35:45 10° W 00:39:41 20° NW 00:43:49 10° NNE night (unlit)
24 Oct - 04:07:43 10° N 04:09:11 11° NNE 04:10:40 10° NNE visible
24 Oct - 05:48:18 10° NNW 05:53:20 29° NE 05:58:24 10° E visible
24 Oct - 07:30:05 10° NW 07:35:59 69° WSW 07:41:49 10° SSE daylight
24 Oct - 09:15:06 10° W 09:17:04 12° W 09:19:02 10° WSW daylight
24 Oct - 22:02:15 10° S 22:07:06 51° ESE 22:12:25 10° NE night (unlit)
24 Oct - 23:44:54 10° WSW 23:49:30 31° NW 23:54:27 10° NNE night (unlit)
